Location: Unspecified
(0.0000°N, 0.0000°E)
Time: 10:19:24
(UTC+00:00)

Courier 1B - Visible Passes

Search period start: 28 July 2014 00:00
Search period end: 07 August 2014 00:00
Orbit: 963 x 1209 km, 28.3° (Epoch: 26 July)

Date Brightness Start Highest point End Pass type
(mag) Time Alt. Az. Time Alt. Az. Time Alt. Az.
28 Jul 9.7 02:57:40 19° N 02:58:54 20° NNE 03:03:57 10° ENE visible
28 Jul 8.1 04:46:23 10° NW 04:53:38 62° NNE 05:00:26 10° ESE visible
28 Jul 10.2 20:10:33 10° WNW 20:14:54 16° NNW 20:19:20 10° NNE visible
29 Jul 10.4 02:08:31 11° NE 02:08:31 11° NE 02:08:49 10° NE visible
29 Jul 8.6 03:55:31 23° NNW 03:59:45 46° NNE 04:06:27 10° E visible
29 Jul 10.0 19:15:27 10° WNW 19:20:42 21° NNW 19:26:09 10° NNE visible
30 Jul 9.1 03:06:23 34° NE 03:06:23 34° NE 03:12:14 10° E visible
30 Jul 7.7 04:53:22 12° WNW 05:00:12 75° SSW 05:07:09 10° SE visible
30 Jul 9.7 18:20:45 10° W 18:26:37 27° NNW 18:32:47 10° NNE visible
31 Jul 10.3 02:17:12 12° ENE 02:17:12 12° ENE 02:17:43 10° E visible
31 Jul 7.7 04:04:11 50° NW 04:06:22 81° NNE 04:13:30 10° ESE visible
31 Jul 10.3 19:25:07 10° NW 19:27:52 12° NNW 19:30:39 10° N visible
01 Aug 8.7 03:14:53 42° E 03:14:53 42° E 03:19:38 10° ESE visible
01 Aug 8.2 05:01:52 19° W 05:06:46 42° SSW 05:13:20 10° SE visible
01 Aug 10.1 18:29:33 10° WNW 18:33:38 16° NNW 18:37:51 10° NNE visible
02 Aug 10.3 02:25:29 10° E 02:25:29 10° E 02:25:32 10° E visible
02 Aug 7.8 04:12:27 57° SW 04:12:55 58° SSW 04:19:57 10° SE visible
03 Aug 9.0 03:22:55 31° SE 03:22:55 31° SE 03:26:23 10° SE visible
03 Aug 8.8 05:09:52 17° WSW 05:13:28 24° SSW 05:19:02 10° SSE visible
04 Aug 8.5 04:20:12 33° SSW 04:20:12 33° SSW 04:25:56 10° SSE visible
05 Aug 9.5 03:30:24 21° SSE 03:30:24 21° SSE 03:32:37 10° SE visible
05 Aug 9.4 05:17:20 11° SW 05:20:24 14° SSW 05:24:04 10° S visible
06 Aug 9.2 04:27:25 19° SSW 04:27:25 19° SSW 04:31:24 10° SSE visible
